[[{"header":{"parameterUnit":"m.s-1","parameterCategory":1,"la1":30.2991,"la2":30.254,"lo1":-89.0895,"lo2":-89.0444,"dy":0.0017,"dx":0.0017,"nx":28,"ny":28,"refTime":"2023-08-27T21:00:00:Z","depth":0,"parameterNumber":2,"parameterNumberName":"U-component_of_WINDS"},"data":[0,0,0,0,0,0,0,0,0,0,0,0,0,0,0,0,0,0,0,0,0,0,0,0,0,0,0,0,0,0,0,0,0,0,0,0,0,0,0,0,0,0,0,0,0,0,0,0,0,0,0,0,0,0,0,0,0,0,-1.6473,-1.6472,0,-1.6378,-1.6377,-1.6376,-1.6315,-1.6315,-1.6314,-1.6314,-1.6216,-1.6214,-1.6211,0,0,0,0,0,0,0,0,0,0,0,0,0,-1.6602,-1.66,-1.6473,-1.6472,-1.647,-1.6378,-1.6377,-1.6375,-1.6315,-1.6315,-1.6314,-1.6314,-1.6217,-1.6214,-1.6211,0,0,0,0,0,0,0,0,0,0,0,0,0,-1.6531,-1.66,-1.6473,-1.6429,-1.6424,-1.6378,-1.6377,-1.6375,-1.6315,-1.6315,-1.6314,-1.6314,-1.6218,-1.6214,-1.6211,-1.62,0,0,-1.62,-1.6199,0,0,0,0,0,0,0,0,-1.6535,-1.6526,-1.6437,-1.6432,-1.6427,-1.6358,-1.6386,-1.6316,-1.6315,-1.6357,-1.6314,-1.6313,-1.6264,-1.6256,-1.624,-1.6196,-1.6192,-1.62,-1.6198,-1.6197,-1.6196,0,0,0,0,0,0,0,-1.654,-1.653,-1.6435,-1.6436,-1.6429,-1.6415,-1.6404,-1.6373,-1.6314,-1.6353,-1.6348,-1.6338,-1.6261,-1.6243,-1.6237,-1.619,-1.62,-1.6197,-1.6195,-1.6194,-1.6134,-1.6135,0,0,0,0,0,0,-1.6552,-1.6534,-1.6438,-1.6432,-1.6481,-1.6413,-1.6401,-1.638,-1.6314,-1.6304,-1.6339,-1.6336,-1.6249,-1.6241,-1.6233,-1.6217,-1.6197,-1.6193,-1.6191,-1.6134,-1.6134,-1.6135,0,0,0,0,0,0,-1.6555,-1.6544,-1.6442,-1.6482,-1.6468,-1.6411,-1.6389,-1.6379,-1.6361,-1.6304,-1.6293,-1.6331,-1.6248,-1.6238,-1.6209,-1.6212,-1.6192,-1.6189,-1.6133,-1.6134,-1.6135,-1.6184,0,0,0,0,0,0,-1.6559,-1.6545,-1.654,-1.6482,-1.6466,-1.642,-1.6389,-1.6377,-1.6356,-1.6351,-1.6294,-1.6284,-1.6247,-1.6215,-1.6206,-1.6207,-1.6186,-1.6133,-1.6133,-1.6134,-1.6182,-1.6186,-1.619,0,0,0,0,0,-1.6564,-1.6558,-1.654,-1.6529,-1.6459,-1.642,-1.6411,-1.6369,-1.6356,-1.6351,-1.6314,-1.6286,-1.6214,-1.6212,-1.6202,-1.6202,-1.6132,-1.6133,-1.6134,-1.618,-1.6185,-1.619,0,0,0,0,0,0,-1.6617,-1.6549,-1.6529,-1.6505,-1.6469,-1.641,-1.6402,-1.6376,-1.6342,-1.6339,-1.6288,-1.6276,-1.6253,-1.6225,-1.6224,-1.6189,-1.617,-1.6169,-1.6208,-1.6213,-1.6217,-1.6224,-1.6183,0,0,0,0,0,-1.6626,-1.66,-1.6542,-1.6526,-1.6509,-1.6459,-1.644,-1.6412,-1.6372,-1.6356,-1.6317,-1.628,-1.6249,-1.623,-1.6198,-1.6178,-1.6165,-1.6174,-1.6178,-1.6182,-1.6181,-1.6169,-1.6172,-1.6138,-1.6138,-1.6138,0,0,-1.6644,-1.6604,-1.659,-1.6536,-1.6504,-1.6479,-1.6446,-1.642,-1.6401,-1.6352,-1.6323,-1.6293,-1.6248,-1.6224,-1.6212,-1.62,-1.6188,-1.6183,-1.6186,-1.6183,-1.617,-1.6174,-1.6177,-1.6139,-1.6139,-1.6139,0,0,-1.6663,-1.6631,-1.6614,-1.6583,-1.6537,-1.6504,-1.65,-1.6445,-1.6424,-1.6394,-1.6357,-1.6334,-1.6281,-1.6251,-1.6229,-1.624,-1.6212,-1.6231,-1.6252,-1.6241,-1.6244,-1.6246,-1.625,-1.6252,-1.6231,-1.6231,-1.6231,0,-1.6691,-1.6651,-1.6608,-1.6585,-1.6562,-1.6518,-1.65,-1.6473,-1.6419,-1.6404,-1.6392,-1.6327,-1.6293,-1.6262,-1.6265,-1.6248,-1.6243,-1.6236,-1.6247,-1.6249,-1.625,-1.6253,-1.6255,-1.6233,-1.6233,-1.6233,-1.6233,0,-1.6688,-1.6661,-1.6653,-1.6602,-1.6579,-1.6559,-1.6513,-1.6494,-1.6468,-1.6437,-1.6407,-1.6366,-1.6326,-1.6316,-1.629,-1.6282,-1.6276,-1.6257,-1.6236,-1.6256,-1.6258,-1.6259,-1.6237,-1.6236,-1.6235,-1.6235,0,0,-1.6736,-1.6663,-1.6661,-1.6638,-1.6584,-1.6562,-1.6541,-1.6502,-1.6487,-1.6452,-1.6432,-1.639,-1.6372,-1.6347,-1.6318,-1.6308,-1.632,-1.629,-1.6288,-1.6297,-1.6308,-1.6323,-1.6325,-1.6302,-1.6302,-1.6302,-1.6312,0,-1.6747,-1.6706,-1.6667,-1.664,-1.6615,-1.6574,-1.6555,-1.652,-1.6491,-1.6465,-1.6433,-1.6404,-1.6382,-1.6367,-1.6356,-1.6321,-1.6321,-1.632,-1.6283,-1.6283,-1.6295,-1.6326,-1.634,-1.6351,-1.6312,-1.6313,-1.6313,0,-1.6754,-1.6721,-1.6691,-1.6641,-1.6629,-1.6613,-1.6575,-1.6551,-1.6512,-1.6491,-1.6464,-1.6434,-1.6409,-1.6393,-1.6359,-1.6359,-1.6342,-1.6323,-1.6322,-1.6316,-1.6298,-1.632,-1.6354,-1.6355,-1.6313,-1.6313,-1.6313,0,-1.6792,-1.674,-1.6716,-1.6697,-1.6638,-1.6628,-1.6603,-1.6563,-1.6543,-1.651,-1.6496,-1.6461,-1.6441,-1.6415,-1.6376,-1.6367,-1.6346,-1.6326,-1.6328,-1.6329,-1.6324,-1.6325,-1.6355,-1.6315,-1.6315,-1.6315,-1.6315,0,-1.6808,-1.6791,-1.6732,-1.6717,-1.6698,-1.6654,-1.6636,-1.6608,-1.6573,-1.6552,-1.6514,-1.6496,-1.6446,-1.6421,-1.639,-1.6367,-1.6359,-1.6342,-1.6333,-1.6344,-1.6347,-1.6332,-1.633,-1.6316,-1.6316,-1.6316,-1.6316,0,-1.6846,-1.6806,-1.6777,-1.6724,-1.671,-1.6698,-1.6653,-1.6637,-1.6607,-1.6581,-1.6572,-1.6524,-1.6493,-1.6452,-1.6409,-1.6388,-1.6369,-1.6357,-1.6382,-1.6377,-1.6382,-1.6382,-1.6403,-1.6403,-1.6364,-1.6365,-1.6365,0,-1.6858,-1.6844,-1.6791,-1.6774,-1.675,-1.6724,-1.6703,-1.6661,-1.6641,-1.6596,-1.6585,-1.6552,-1.6523,-1.6476,-1.6437,-1.6404,-1.639,-1.64,-1.6385,-1.6397,-1.639,-1.6391,-1.639,-1.6403,-1.6404,-1.6405,-1.6405,0,-1.6884,-1.6865,-1.6836,-1.6802,-1.6778,-1.6748,-1.6717,-1.6706,-1.6657,-1.6636,-1.6605,-1.6582,-1.6539,-1.6506,-1.6468,-1.6443,-1.6416,-1.641,-1.6409,-1.6419,-1.6435,-1.6426,-1.6392,-1.641,-1.6409,-1.6409,-1.6409,-1.6408,-1.6909,-1.6895,-1.6855,-1.6825,-1.6797,-1.6769,-1.6752,-1.672,-1.6693,-1.6654,-1.6631,-1.6601,-1.6563,-1.6509,-1.6485,-1.6461,-1.645,-1.6448,-1.6448,-1.6448,-1.6452,-1.644,-1.6454,-1.6454,-1.6454,-1.6454,-1.6453,0,-1.6932,-1.6905,-1.6878,-1.6836,-1.6812,-1.679,-1.6755,-1.6737,-1.671,-1.6678,-1.665,-1.6615,-1.6583,-1.6543,-1.6509,-1.6498,-1.6485,-1.649,-1.649,-1.6485,-1.6463,-1.6467,-1.6502,-1.6502,-1.6502,-1.6502,-1.6502,-1.6502,-1.6941,-1.6917,-1.6894,-1.6856,-1.6829,-1.6799,-1.6781,-1.6755,-1.6729,-1.6691,-1.6665,-1.6639,-1.6604,-1.6567,-1.6538,-1.6527,-1.6516,-1.6526,-1.6511,-1.6491,-1.6486,-1.6482,-1.6486,-1.6524,-1.6524,-1.6535,-1.6535,-1.6535]},{"header":{"parameterUnit":"m.s-1","parameterCategory":1,"la1":30.2991,"la2":30.254,"lo1":-89.0895,"lo2":-89.0444,"dy":0.0017,"dx":0.0017,"nx":28,"ny":28,"refTime":"2023-08-27T21:00:00:Z","depth":0,"parameterNumber":3,"parameterNumberName":"V-component_of_WINDS"},"data":[0,0,0,0,0,0,0,0,0,0,0,0,0,0,0,0,0,0,0,0,0,0,0,0,0,0,0,0,0,0,0,0,0,0,0,0,0,0,0,0,0,0,0,0,0,0,0,0,0,0,0,0,0,0,0,0,0,0,3.5942,3.5942,0,3.5963,3.5963,3.5963,3.5964,3.5964,3.5964,3.5964,3.5983,3.5984,3.5985,0,0,0,0,0,0,0,0,0,0,0,0,0,3.5901,3.5902,3.5942,3.5942,3.5942,3.5963,3.5963,3.5963,3.5965,3.5964,3.5964,3.5964,3.5983,3.5984,3.5985,0,0,0,0,0,0,0,0,0,0,0,0,0,3.592,3.5902,3.5942,3.5945,3.5946,3.5963,3.5963,3.5963,3.5965,3.5964,3.5964,3.5964,3.5983,3.5984,3.5985,3.5999,0,0,3.5988,3.5989,0,0,0,0,0,0,0,0,3.5919,3.5922,3.5945,3.5945,3.5946,3.5961,3.5956,3.5975,3.5965,3.5957,3.5964,3.5963,3.5976,3.5978,3.5982,3.6,3.6001,3.5989,3.5989,3.599,3.599,0,0,0,0,0,0,0,3.5918,3.5921,3.595,3.5945,3.5946,3.5946,3.5948,3.596,3.5968,3.5958,3.5958,3.5961,3.5976,3.5981,3.5983,3.6001,3.5989,3.5989,3.599,3.5991,3.6031,3.6032,0,0,0,0,0,0,3.5916,3.592,3.5949,3.5951,3.5931,3.5947,3.5949,3.5956,3.5968,3.597,3.5961,3.5961,3.598,3.5981,3.5983,3.6001,3.599,3.5991,3.5991,3.6031,3.6031,3.6032,0,0,0,0,0,0,3.5915,3.5919,3.5949,3.5935,3.5939,3.5948,3.5956,3.5957,3.5962,3.5971,3.5972,3.5965,3.5979,3.5982,3.5995,3.6001,3.5991,3.5992,3.603,3.6031,3.6032,3.6035,0,0,0,0,0,0,3.5914,3.5918,3.5924,3.5935,3.594,3.596,3.5956,3.5958,3.5964,3.5964,3.5974,3.5976,3.5979,3.5994,3.5996,3.6003,3.5993,3.603,3.6031,3.6031,3.6034,3.6036,3.6037,0,0,0,0,0,3.5913,3.5924,3.5924,3.5928,3.5947,3.5961,3.5963,3.5968,3.5964,3.597,3.5976,3.5975,3.6,3.5995,3.5998,3.6005,3.603,3.6031,3.6031,3.6034,3.6035,3.6037,0,0,0,0,0,0,3.5912,3.5925,3.5926,3.5941,3.595,3.5961,3.5968,3.5969,3.5978,3.5978,3.5982,3.5985,3.5998,3.6003,3.5997,3.6019,3.6015,3.6016,3.6015,3.6017,3.6018,3.6016,3.5994,0,0,0,0,0,3.5914,3.5924,3.5935,3.5947,3.5952,3.5959,3.5965,3.5968,3.5977,3.5981,3.5987,3.5995,3.6005,3.6011,3.6021,3.6035,3.6038,3.6042,3.6043,3.6044,3.6045,3.6053,3.6055,3.6035,3.6035,3.6035,0,0,3.5917,3.5926,3.5932,3.5948,3.5955,3.5965,3.5962,3.5973,3.5981,3.5982,3.5995,3.6,3.601,3.6024,3.6031,3.6028,3.6051,3.6045,3.6046,3.6046,3.6054,3.6056,3.6058,3.6036,3.6035,3.6035,0,0,3.5929,3.5937,3.5948,3.5955,3.5966,3.5971,3.5974,3.5985,3.5989,3.6002,3.6004,3.6012,3.6029,3.6036,3.6041,3.6057,3.6056,3.6059,3.6065,3.6073,3.6075,3.6076,3.6081,3.6083,3.6061,3.6061,3.6061,0,3.5932,3.5948,3.5953,3.5965,3.5971,3.5974,3.5985,3.5992,3.6005,3.6009,3.6007,3.6028,3.6035,3.6051,3.6055,3.6059,3.6062,3.6058,3.6074,3.6076,3.6077,3.6082,3.6084,3.6061,3.6061,3.6061,3.6061,0,3.5951,3.5962,3.597,3.5983,3.5991,3.6002,3.6009,3.6016,3.6018,3.6023,3.6037,3.6045,3.6056,3.606,3.6062,3.6077,3.6075,3.6073,3.6069,3.6079,3.6084,3.6086,3.6061,3.6061,3.6061,3.6061,0,0,3.5962,3.5979,3.5982,3.5988,3.6001,3.6009,3.6021,3.6032,3.6038,3.6047,3.6057,3.6071,3.607,3.6077,3.6079,3.6086,3.6098,3.6084,3.6084,3.6086,3.6114,3.6115,3.6117,3.6098,3.6098,3.6099,3.6113,0,3.5975,3.5996,3.6001,3.6018,3.6029,3.6032,3.6041,3.605,3.6055,3.6064,3.607,3.608,3.6078,3.6082,3.6089,3.6095,3.6103,3.6094,3.6106,3.6107,3.6103,3.6119,3.612,3.6133,3.6115,3.6115,3.6115,0,3.5992,3.6003,3.6022,3.6033,3.6038,3.6047,3.6058,3.6067,3.6077,3.608,3.6088,3.609,3.6102,3.6097,3.6113,3.6106,3.6112,3.6115,3.6116,3.6117,3.6111,3.612,3.6137,3.6139,3.6118,3.6118,3.6118,0,3.5999,3.6017,3.6031,3.6037,3.6051,3.6057,3.6063,3.6072,3.6079,3.6089,3.6093,3.6104,3.611,3.6118,3.6123,3.6119,3.6138,3.6134,3.6141,3.6141,3.6144,3.6144,3.6162,3.6148,3.6148,3.6148,3.6148,0,3.6013,3.6024,3.6034,3.6043,3.6055,3.6062,3.6074,3.608,3.6088,3.6098,3.61,3.6109,3.6115,3.6125,3.6129,3.6141,3.6143,3.6146,3.6147,3.6146,3.6145,3.6149,3.6148,3.6149,3.6149,3.6149,3.6149,0,3.6021,3.6029,3.6044,3.6057,3.606,3.6069,3.6079,3.6087,3.6093,3.6104,3.6107,3.6116,3.6127,3.6133,3.6147,3.6149,3.6163,3.6164,3.616,3.6161,3.6167,3.6166,3.6188,3.6191,3.6175,3.6176,3.6176,0,3.603,3.6039,3.6052,3.6059,3.6065,3.6076,3.6084,3.609,3.6097,3.6109,3.6116,3.6127,3.6137,3.6154,3.6161,3.6172,3.6173,3.6179,3.6174,3.6173,3.6173,3.6172,3.6173,3.618,3.618,3.6181,3.6181,0,3.6044,3.6047,3.6058,3.607,3.6079,3.6088,3.6098,3.6103,3.6111,3.6119,3.6131,3.6138,3.6152,3.6164,3.6175,3.6181,3.6182,3.6182,3.6185,3.6183,3.6181,3.6182,3.6163,3.6182,3.6182,3.6182,3.6181,3.6181,3.6052,3.6061,3.6072,3.6084,3.6092,3.61,3.6109,3.6116,3.6126,3.6139,3.6142,3.6154,3.6164,3.6179,3.6185,3.6194,3.6193,3.6196,3.6197,3.6198,3.6198,3.618,3.6197,3.6196,3.6196,3.6196,3.6196,0,3.6067,3.6074,3.6085,3.6098,3.6108,3.6109,3.6119,3.6127,3.6138,3.6147,3.6157,3.617,3.6182,3.619,3.6201,3.6207,3.6208,3.621,3.6209,3.621,3.6199,3.6196,3.6209,3.6209,3.6209,3.6209,3.6209,3.6209,3.6075,3.6089,3.6094,3.6112,3.6119,3.6132,3.6137,3.6146,3.6153,3.6168,3.6178,3.6183,3.6192,3.6204,3.6214,3.6216,3.622,3.6222,3.6224,3.6213,3.6211,3.621,3.6207,3.6223,3.6223,3.6235,3.6235,3.6235]}]]